When you browse on this site, cookies collect data to enhance your experience and personalize the content and advertising you see.
Visit our Privacy Policy to learn more. By continuing to use the site, you agree to this use of cookies and data.
  • In United Kingdom
  • List of Countries
  • For 7 days
  • Water Temperature
  • Weather Map
  • Weather Widgets
  • user-avatar
    Login

    Hourly Weather Maidstone

    Today, 20 November, Wednesday

    Time Temperature Precipitation Wind Pressure Humidity
    00:00 +5°C° 0 mm 4 mps 760 mmHg 87%
    01:00 +5°C° 0 mm 4 mps 760 mmHg 87%
    02:00 +4°C° 0 mm 4 mps 759 mmHg 86%
    03:00 +4°C° 0 mm 4 mps 759 mmHg 86%
    04:00 +4°C° 0 mm 4 mps 759 mmHg 85%
    05:00 +4°C° 0 mm 4 mps 759 mmHg 84%
    06:00 +4°C° 0 mm 4 mps 759 mmHg 84%
    07:00 +4°C° 0 mm 4 mps 759 mmHg 82%
    08:00 +4°C° 0 mm 4 mps 759 mmHg 79%
    09:00 +5°C° 0 mm 4 mps 758 mmHg 76%
    10:00 +5°C° 0 mm 4 mps 758 mmHg 75%
    11:00 +5°C° 0 mm 5 mps 758 mmHg 73%
    12:00 +5°C° 0 mm 5 mps 758 mmHg 73%
    13:00 +5°C° 0 mm 5 mps 757 mmHg 72%
    14:00 +5°C° 0 mm 5 mps 756 mmHg 72%
    15:00 +3°C° 0 mm 5 mps 756 mmHg 71%
    16:00 +3°C° 0 mm 6 mps 755 mmHg 73%
    17:00 +3°C° 0 mm 6 mps 755 mmHg 75%
    18:00 +2°C° 0 mm 6 mps 755 mmHg 78%
    19:00 +2°C° 0 mm 6 mps 755 mmHg 79%
    20:00 +2°C° 0 mm 6 mps 755 mmHg 81%
    21:00 +2°C° 0 mm 5 mps 755 mmHg 82%
    22:00 +2°C° 0 mm 5 mps 754 mmHg 84%
    23:00 +2°C° 0 mm 5 mps 754 mmHg 85%

    Tomorrow, 21 November, Thursday

    Time Temperature Precipitation Wind Pressure Humidity
    00:00 +2°C° 0 mm 5 mps 754 mmHg 87%
    01:00 +2°C° 0 mm 5 mps 753 mmHg 87%
    02:00 +2°C° 0 mm 5 mps 753 mmHg 87%
    03:00 +2°C° 0 mm 5 mps 753 mmHg 87%
    04:00 +2°C° 0 mm 5 mps 752 mmHg 89%
    05:00 +2°C° 0 mm 5 mps 752 mmHg 90%
    06:00 +2°C° 0 mm 5 mps 752 mmHg 91%
    07:00 +2°C° 0 mm 5 mps 752 mmHg 90%
    08:00 +2°C° 0 mm 5 mps 752 mmHg 89%
    09:00 +3°C° 0 mm 5 mps 752 mmHg 87%
    10:00 +3°C° 0 mm 5 mps 751 mmHg 86%
    11:00 +5°C° 0 mm 5 mps 751 mmHg 85%
    12:00 +5°C° 0 mm 5 mps 750 mmHg 84%
    13:00 +6°C° 0 mm 5 mps 750 mmHg 84%
    14:00 +6°C° 0 mm 4 mps 749 mmHg 84%
    15:00 +6°C° 0 mm 4 mps 749 mmHg 84%
    16:00 +6°C° 0 mm 4 mps 749 mmHg 85%
    17:00 +6°C° 0 mm 4 mps 749 mmHg 86%
    18:00 +6°C° 0 mm 5 mps 748 mmHg 88%
    19:00 +6°C° 0 mm 5 mps 748 mmHg 87%
    20:00 +7°C° 0 mm 5 mps 748 mmHg 86%
    21:00 +7°C° 0 mm 5 mps 748 mmHg 86%
    22:00 +7°C° 0.3 mm 5 mps 747 mmHg 87%
    23:00 +7°C° 0.3 mm 5 mps 747 mmHg 89%

    Day after tomorrow, 22 November, Friday

    Time Temperature Precipitation Wind Pressure Humidity
    00:00 +7°C° 0.3 mm 5 mps 747 mmHg 90%
    01:00 +7°C° 0.1 mm 5 mps 747 mmHg 89%
    02:00 +7°C° 0.1 mm 5 mps 746 mmHg 89%
    03:00 +7°C° 0.1 mm 6 mps 746 mmHg 88%
    04:00 +7°C° 0.1 mm 5 mps 746 mmHg 88%
    05:00 +7°C° 0.1 mm 5 mps 746 mmHg 88%
    06:00 +6°C° 0.1 mm 5 mps 746 mmHg 88%
    07:00 +6°C° 0.1 mm 5 mps 746 mmHg 88%
    08:00 +7°C° 0.1 mm 5 mps 746 mmHg 88%
    09:00 +7°C° 0.1 mm 5 mps 747 mmHg 88%
    10:00 +8°C° 0 mm 6 mps 747 mmHg 86%
    11:00 +8°C° 0 mm 6 mps 747 mmHg 84%
    12:00 +9°C° 0 mm 6 mps 747 mmHg 82%
    13:00 +9°C° 0 mm 6 mps 746 mmHg 82%
    14:00 +8°C° 0 mm 5 mps 746 mmHg 82%
    15:00 +8°C° 0 mm 5 mps 746 mmHg 83%
    16:00 +8°C° 0 mm 5 mps 746 mmHg 84%
    17:00 +8°C° 0 mm 5 mps 746 mmHg 85%
    18:00 +7°C° 0 mm 5 mps 746 mmHg 86%
    19:00 +7°C° 0 mm 5 mps 746 mmHg 86%
    20:00 +7°C° 0 mm 6 mps 745 mmHg 85%
    21:00 +7°C° 0 mm 6 mps 745 mmHg 85%
    22:00 +7°C° 0 mm 6 mps 745 mmHg 84%
    23:00 +8°C° 0 mm 6 mps 745 mmHg 82%

    23 November, Saturday

    Time Temperature Precipitation Wind Pressure Humidity
    00:00 +8°C° 0 mm 7 mps 744 mmHg 81%
    01:00 +8°C° 0.3 mm 7 mps 744 mmHg 83%
    02:00 +7°C° 0.3 mm 8 mps 744 mmHg 84%
    03:00 +7°C° 0.3 mm 9 mps 743 mmHg 86%
    04:00 +7°C° 0.4 mm 9 mps 743 mmHg 85%
    05:00 +7°C° 0.4 mm 8 mps 743 mmHg 83%
    06:00 +7°C° 0.4 mm 8 mps 743 mmHg 82%
    07:00 +7°C° 0.2 mm 8 mps 743 mmHg 84%
    08:00 +8°C° 0.2 mm 7 mps 744 mmHg 85%
    09:00 +8°C° 0.2 mm 7 mps 744 mmHg 87%
    10:00 +8°C° 1 mm 7 mps 744 mmHg 87%
    11:00 +9°C° 1 mm 6 mps 745 mmHg 87%
    12:00 +9°C° 1 mm 5 mps 745 mmHg 86%
    13:00 +9°C° 0 mm 5 mps 745 mmHg 85%
    14:00 +9°C° 0 mm 5 mps 745 mmHg 83%
    15:00 +8°C° 0 mm 5 mps 746 mmHg 82%
    16:00 +8°C° 0 mm 4 mps 746 mmHg 83%
    17:00 +8°C° 0 mm 4 mps 747 mmHg 84%
    18:00 +8°C° 0 mm 4 mps 747 mmHg 85%
    19:00 +9°C° 0 mm 3 mps 748 mmHg 86%
    20:00 +8°C° 0 mm 3 mps 748 mmHg 87%
    21:00 +8°C° 0 mm 3 mps 749 mmHg 88%
    22:00 +8°C° 0 mm 2 mps 749 mmHg 90%
    23:00 +8°C° 0 mm 2 mps 750 mmHg 91%

    24 November, Sunday

    Time Temperature Precipitation Wind Pressure Humidity
    00:00 +9°C° 0 mm 1 mps 750 mmHg 92%
    01:00 +9°C° 0 mm 1 mps 751 mmHg 93%
    02:00 +8°C° 0 mm 1 mps 751 mmHg 94%
    03:00 +8°C° 0 mm 1 mps 751 mmHg 95%
    04:00 +8°C° 0 mm 1 mps 751 mmHg 95%
    05:00 +8°C° 0 mm 1 mps 752 mmHg 95%
    06:00 +8°C° 0 mm 1 mps 752 mmHg 95%
    07:00 +8°C° 0 mm 1 mps 753 mmHg 95%
    08:00 +9°C° 0 mm 1 mps 753 mmHg 95%
    09:00 +9°C° 0 mm 1 mps 753 mmHg 94%
    10:00 +10°C° 0 mm 2 mps 754 mmHg 91%
    11:00 +12°C° 0 mm 2 mps 754 mmHg 88%
    12:00 +12°C° 0 mm 3 mps 754 mmHg 85%
    13:00 +12°C° 0 mm 3 mps 754 mmHg 87%
    14:00 +12°C° 0 mm 3 mps 754 mmHg 90%
    15:00 +11°C° 0 mm 3 mps 754 mmHg 92%
    16:00 +11°C° 0 mm 3 mps 754 mmHg 93%
    17:00 +10°C° 0 mm 4 mps 754 mmHg 95%
    18:00 +10°C° 0 mm 4 mps 754 mmHg 96%
    19:00 +10°C° 0 mm 4 mps 754 mmHg 95%
    20:00 +10°C° 0 mm 4 mps 754 mmHg 93%
    21:00 +10°C° 0 mm 4 mps 755 mmHg 92%
    22:00 +9°C° 0 mm 5 mps 754 mmHg 90%
    23:00 +9°C° 0 mm 6 mps 754 mmHg 88%

    25 November, Monday

    Time Temperature Precipitation Wind Pressure Humidity
    00:00 +9°C° 0 mm 6 mps 754 mmHg 86%
    01:00 +9°C° 0.3 mm 7 mps 753 mmHg 88%
    02:00 +9°C° 0.3 mm 7 mps 752 mmHg 90%
    03:00 +10°C° 0.3 mm 8 mps 752 mmHg 92%
    04:00 +10°C° 0.4 mm 8 mps 752 mmHg 92%
    05:00 +10°C° 0.4 mm 9 mps 751 mmHg 92%
    06:00 +11°C° 0.4 mm 9 mps 751 mmHg 93%
    07:00 +11°C° 0.7 mm 9 mps 751 mmHg 92%
    08:00 +11°C° 0.7 mm 9 mps 751 mmHg 92%
    09:00 +11°C° 0.7 mm 9 mps 751 mmHg 91%
    10:00 +11°C° 0.2 mm 8 mps 752 mmHg 88%
    11:00 +12°C° 0.2 mm 7 mps 752 mmHg 84%
    12:00 +13°C° 0.2 mm 6 mps 752 mmHg 81%
    13:00 +11°C° 0 mm 6 mps 752 mmHg 79%
    14:00 +11°C° 0 mm 6 mps 753 mmHg 78%
    15:00 +10°C° 0 mm 5 mps 753 mmHg 76%
    16:00 +10°C° 0 mm 5 mps 753 mmHg 76%
    17:00 +9°C° 0 mm 5 mps 754 mmHg 76%
    18:00 +9°C° 0 mm 5 mps 754 mmHg 75%
    19:00 +9°C° 0 mm 5 mps 754 mmHg 77%
    20:00 +8°C° 0 mm 5 mps 755 mmHg 79%
    21:00 +8°C° 0 mm 5 mps 755 mmHg 81%
    22:00 +8°C° 0 mm 5 mps 755 mmHg 83%
    23:00 +8°C° 0 mm 5 mps 755 mmHg 86%
    Show more